Regional Weather Roundup
Issued by NWS Wakefield, VA

Home | Current Version | Previous Version | Graphics & Text | Print | Product List | Glossary On
Versions: 1 2 3 4 5 6 7 8 9 10 11 12 13 14 15 16 17 18 19 20 21 22 23 24 25 26 27 28 29 30 31 32 33 34 35 36 37 38 39 40 41 42 43 44 45 46 47 48 49 50
000
ASUS41 KAKQ 290514
RWRAKQ

REGIONAL WEATHER ROUNDUP
NATIONAL WEATHER SERVICE WAKEFIELD VA
100 AM EDT SUN MAR 29 2015

Note: "fair" indicates few or no clouds below 12,000 feet with no
significant weather and/or obstructions to visibility. * = Denotes
station may not report precipitation (e.g., rain,snow,etc.),
thunder or fog.

VAZ042-051-052>054-056-290600-
NORTHERN VIRGINIA

CITY           SKY/WX    TMP DP  RH WIND       PRES   REMARKS
WASH NATIONAL  CLEAR     31   6  35 NW16      30.27R WCI  20
DULLES         CLEAR     28   3  34 NW18G25   30.27R WCI  15
FORT BELVOIR   CLEAR     29   6  38 NW13      30.27R WCI  19
QUANTICO       CLEAR     30   7  37 NW14      30.30R WCI  19
FREDERICKSBRG* CLEAR     29  13  52 CALM      30.28R
STAFFORD*      CLEAR     22  12  66 NW5       30.33R
WARRENTON      CLEAR     26  17  67 CALM      30.27R
CULPEPER*      CLEAR     27  10  50 NW3       30.28R
MANASSAS*      CLEAR     28  10  47 NW9       30.28S
LEESBURG*      CLEAR     28   9  43 N10G17    30.28R WCI  19
WINCHESTER     CLEAR     28   0  29 NW12      30.26R WCI  18
FRONT ROYAL*   FAIR      27   9  46 N7        30.26R
LURAY*         FAIR      30  10  43 NW9       30.25R
$$

VAZ048-049-060>072-079>083-290600-
CENTRAL AND SOUTH CENTRAL VIRGINIA

CITY           SKY/WX    TMP DP  RH WIND       PRES   REMARKS
RICHMOND       PTCLDY    29  10  45 NW5       30.28R
CHESTERFIELD*  NOT AVBL
PETERSBURG*    CLEAR     30  10  43 W6        30.29S
HANOVER        CLEAR     25  14  63 CALM      30.29R
TAPPAHANNOCK*  CLEAR     28   7  41 W5        30.28R
QUINTON*       FAIR      25  12  58 CALM      30.28S
CHARLOTTSVILLE CLEAR     26  10  50 SW5       30.26R
GORDONSVILLE*  FAIR      28  10  46 CALM      30.26S
ORANGE*        CLEAR     25  19  80 CALM      30.28S
LOUISA*        CLEAR     25  12  58 W3        30.25S
BUMPASS*       FAIR      24  13  61 CALM      30.27S
FARMVILLE*     CLEAR     26  13  59 CALM      30.28S
CREWE*         FAIR      28   8  43 MISG      30.28R
FORT PICKETT*  FAIR      29   9  44 N7        30.28R
CHASE CITY*    FAIR      31  11  43 NW6       30.29R
CLARKSVILLE*   FAIR      32  10  40 N5        30.28S
SOUTH HILL*    CLEAR     26  13  56 N6        30.34R
LAWRENCEVILLE* FAIR      28  13  52 N3        30.28R
EMPORIA*       CLEAR     27  16  63 CALM      30.30S
$$

VAZ088>098-290600-
SOUTHEAST VIRGINIA

CITY           SKY/WX    TMP DP  RH WIND       PRES   REMARKS
NORFOLK        CLEAR     33   8  35 NW13G24   30.26R WCI  24
VIRGINIA BEACH FAIR      34  10  37 NW21G30   30.24R WCI  22
NORFOLK NAVAL  PTCLDY    35  10  35 NW16      30.27R
WEST POINT*    CLEAR     32   9  39 NW5       30.29S
SALUDA*        FAIR      31  10  41 N12G18    30.26R WCI  21
NEWPORT NEWS   NOT AVBL
LANGLEY AFB    CLEAR     31   9  40 NW10      30.26R WCI  22
FORT EUSTIS    CLEAR     32  13  44 N12G18    30.25R WCI  23
WILLIAMSBURG*  CLEAR     30  16  55 N8        30.28R
HR EXEC AP*    FAIR      30  10  43 NW3       30.28R
FRANKLIN*      CLEAR     29  12  49 NW5       30.29R
WAKEFIELD      CLEAR     27  14  58 CALM      30.28R
$$

VAZ020-022-025-037-045-290600-
WEST CENTRAL AND SOUTHWEST VIRGINIA

CITY           SKY/WX    TMP DP  RH WIND       PRES   REMARKS
STAUNTON*      CLEAR     24   9  52 W3        30.25S
WAYNESBORO*    FAIR      24   6  46 W5        30.22S
HOT SPRINGS VA CLEAR     15   6  66 NW12G20   30.07R WCI   2
LYNCHBURG      CLEAR     25   9  50 CALM      30.28R
DANVILLE       CLEAR     29  13  51 CALM      30.30R
SOUTH BOSTON*  FAIR      29   9  42 N3        30.30R
MARTINSVILLE   CLEAR     22  14  71 CALM      30.31R
ROANOKE        CLEAR     28   5  37 NW9       30.29R
BLACKSBURG     CLEAR     24   5  45 W6        30.25S
DUBLIN*        CLEAR     26   8  44 NW7       30.25S
MARION*        CLEAR     26   5  41 W8        30.24S
HILLSVILLE*    CLEAR     24   6  46 NW9       30.19S
RICHLANDS*     FAIR      24   3  41 NW5       30.24R
WISE*          CLEAR     27  10  50 NW5       30.25R
ABINGDON*      CLEAR     30   8  40 CALM      30.26S
$$

MDZ021>025-VAZ099-100-290600-
SOUTHERN MARYLAND AND THE DELMARVA PENINSULA

CITY           SKY/WX    TMP DP  RH WIND       PRES   REMARKS
PATUXENT RIVER CLEAR     30   7  37 NW15G23   30.24S WCI  19
BAY BRIDGE APT   N/A     30  10  43 NW14G21   30.23R WCI  20
LEONARDTOWN    CLEAR     30   7  37 W8        30.26S
DOVER          PTCLDY    29  12  48 NW15      30.19R WCI  18
GEORGETOWN     CLEAR     28  13  53 W7        30.20R
EASTON         CLEAR     31  15  51 NW13G21   30.25R WCI  21
CAMBRIDGE      CLEAR     32  12  43 NW16      30.21S WCI  21
SALISBURY      CLEAR     29  11  47 NW7       30.21R
OCEAN CITY     CLEAR     28  12  51 NW8       30.20R
WALLOPS ISLAND CLEAR     29  13  51 NW8       30.23R
ACCOMACK*      MOCLDY    32  10  40 NW10G20   30.23R WCI  24
$$

NCZ012>017-030>032-290600-
NORTH CENTRAL AND EASTERN NORTH CAROLINA

CITY           SKY/WX    TMP DP  RH WIND       PRES   REMARKS
ROANOKE RAPIDS FAIR      28  16  59 N5        30.29S
RALEIGH        CLEAR     32   9  38 VRB6      30.29R
ELIZABETH CITY CLEAR     32  14  47 N12       30.27R WCI  23
AHOSKIE*       CLEAR     28  15  57 CALM      30.30R
EDENTON*       CLEAR     31  16  54 N6        30.28R
CURRITUCK*     CLEAR     32   9  38 N6        30.27R
KILL DEVIL HLS CLEAR     33  10  38 N10G18    30.24R WCI  24
MANTEO         CLEAR     34  16  48 N18G24    30.26R WCI  23
CAPE HATTERAS  CLEAR     37  24  59 N8G20     30.24R
TARBORO*       FAIR      32  15  48 CALM      30.30R
GOLDSBORO      CLEAR     35  17  46 N8        30.27R
WASHINGTON     CLEAR     32  17  55 N7        30.29R
GREENVILLE     CLEAR     32  19  59 N6        30.30R
NEW BERN       CLEAR     36  18  48 N13G23    30.28R
WILMINGTON     CLEAR     37  20  50 N10       30.26R
$$

VAZ048-290600-
ELSEWHERE

CITY           SKY/WX    TMP DP  RH WIND       PRES   REMARKS
HARRISBURG PA  CLEAR     26   4  38 NW10      30.23S WCI  16
BALTIMORE      PTCLDY    28   6  39 NW10      30.23R WCI  19
ANNAPOLIS      CLEAR     30  10  43 NW9       30.23R
ANDREWS AFB    CLEAR     29   6  37 NW15G23   30.24R WCI  17
PHILADELPHIA   MOCLDY    27   5  39 N17G29    30.20R WCI  14
HENDERSON NC   CLEAR     29  10  44 N3        30.28S
GREENSBORO     CLEAR     31   8  38 N5        30.27R
ROCKY MOUNT    CLEAR     30  17  58 N6        30.29R
$$

VAZ100-290600-
MARINE

STATION/POSITION TIME  TEMP    WIND        PRES    WAVE   SWELL
                       AIR SEA DIR/SP/G            HT/PER HT/PER
                 (UTC) (F)     (DEG/KT/KT) (MB)    (FT/S) (FT/S)
BRANDYWINE LGT   0406   31 39  320/ 16/ 22 1021.6R
CAPE MAY NJ      0418   32 43  270/  2/  8 1021.3R
LEWES DE         0400   31 42  290/ 12/ 14 1021.9R
15NM E FENWICK I 0450   32 39              1021.2R   5/ 5
OCEAN-CITY-INLET 0406   31 42  310/  9/ 12 1022.1R
WACHAPREAGUE VA  0400   32 46  320/  4/ 16 1023.3R
THOMAS POINT MD  0500                        N/A
COVE POINT MD    0400   29     320/ 16/ 19 1023.5R
SOLOMONS ISLAND  0418      43                N/A
BISHOPS HEAD MD  0418          310/ 19/ 22 1023.2R
PINEY POINT MD   0400          350/ 21/ 24   N/A
CAMBRIDGE MD     0418   32 43  300/ 15/ 24 1023.1R
LEWISETTA VA     0400   32 44              1024.2R
RAPPAHANNOCK LGT 0400          300/ 23/ 27 1024.0R
STINGRAY PT      0500   33 44  330/ 17/ 23   N/A     2/ 2
YORK RVR RNG VA  0418   33     330/ 19/ 24 1023.9R
YORKTOWN VA      0412   33 46  330/ 14/ 16 1024.4R
DOMINION TERM VA 0400   33     350/  5/ 10 1024.5R
KIPTOPEKE VA     0400      47  330/ 26/ 30   N/A
CHES BAY BRIDGE  0406   34 43  310/ 26/ 31 1023.8R
CAPE HENRY VA    0400   34     320/ 26/ 29 1022.6R
CHESAPEAKE LGHT  0400   34     330/ 23/ 25 1024.1R
WILLOUBY STN VA  0400   33     340/ 17/ 20 1024.9R
S CRANEY ISL VA  0418          340/ 13/ 18 1024.5R
CAPE HENRY BUOY  0428      40                N/A     5/ 5
1ST LANDING BUOY 0500   35     340/ 21/ 27 1023.9R   4/ 3
OFFSHORE WE BUOY 0411      40                N/A     6/ 5   2/ 9
64NM E OF VA BCH 0450   37 56  330/ 23/ 29 1022.3R   6/ 6
DUCK PIER NC     0418   35 42  340/ 23/ 26 1022.9R
44056 DUCK FRF   0411      41                N/A     5/ 5
OREGON INLET NC  0418   35 46  340/ 13/ 19 1024.0R
HATTERAS NC      0406   42 53  340/ 16/ 18 1023.5R
CAPE LOOKOUT NC  0500   41     350/ 13/ 16 1023.7R
$$



USA.gov is the U.S. government's official web portal to all federal, state and local government web resources and services.